Hourly Data Report for October 28, 2013

All times are specified in Local Standard Time (LST). Add 1 hour to adjust for Daylight Saving Time where and when it is observed.

KITCHENER/WATERLOO
ONTARIO

43°27'39.000" N
80°22'43.000" W
321.60 m
6144239
71368
YKF

Download Data

Hourly Data (October 2013)
Hourly Data Report for October 28, 2013
Temp Definition
°C
Dew Point Temp Definition
°C
Rel Hum Definition
%
Wind Dir Definition
10's deg

Wind Spd Definition
km/h
Visibility Definition
km
Stn Press Definition
kPa
Hmdx Definition


Wind Chill Definition


Weather Definition


TIME
00:00 Legend Double Dagger 3.5 0.6 81 22 17 16.1 97.76     LegendNANA
01:00 Legend Double Dagger 3.9 0.8 80 24 17 16.1 97.78     LegendNANA
02:00 Legend Double Dagger 3.3 0.5 82 24 15 16.1 97.80     LegendNANA
03:00 Legend Double Dagger 3.2 0.7 83 25 13 16.1 97.85     LegendNANA
04:00 Legend Double Dagger 3.0 0.7 85 24 11 16.1 97.93     LegendNANA
05:00 Legend Double Dagger 3.8 1.5 85 26 9 16.1 98.05     LegendNANA
06:00 Legend Double Dagger 4.4 1.9 84 29 8 16.1 98.15     LegendNANA
07:00 Legend Double Dagger 4.0 2.2 88 28 5 16.1 98.25     LegendNANA
08:00 Legend Double Dagger 4.6 2.3 85 1 13 16.1 98.41     LegendNANA
09:00 Legend Double Dagger 5.1 0.6 73 2 17 16.1 98.53     LegendNANA
10:00 Legend Double Dagger 5.0 -0.3 69 36 17 16.1 98.61     LegendNANA
11:00 Legend Double Dagger 5.9 -2.6 54 4 21 16.1 98.69     LegendNANA
12:00 Legend Double Dagger 6.4 -7.2 37 1 13 16.1 98.73     LegendNANA
13:00 Legend Double Dagger 6.9 -5.9 40 4 9 16.1 98.75     LegendNANA
14:00 Legend Double Dagger 7.2 -6.8 36 5 11 16.1 98.76     LegendNANA
15:00 Legend Double Dagger 7.1 -8.2 33 2 13 16.1 98.80     LegendNANA
16:00 Legend Double Dagger 6.5 -7.6 36 4 9 16.1 98.81     LegendNANA
17:00 Legend Double Dagger 4.4 -5.0 51 6 8 16.1 98.82     LegendNANA
18:00 Legend Double Dagger 0.8 -4.6 67 7 9 16.1 98.88     LegendNANA
19:00 Legend Double Dagger 1.1 -6.1 59 5 9 16.1 98.94     LegendNANA
20:00 Legend Double Dagger 0.4 -5.9 63 6 8 16.1 98.97     LegendNANA
21:00 Legend Double Dagger -0.1 -5.5 67 5 5 16.1 99.02   -2 LegendNANA
22:00 Legend Double Dagger -0.7 -5.4 71 3 8 16.1 99.04   -4 LegendNANA
23:00 Legend Double Dagger -1.9 -4.6 82 36 4 16.1 99.06   -3 LegendNANA

Notes on Data Quality.

Legend

  • E = Estimated
  • M = Missing
  • NA = Not Available
  • ‡ = Partner data that is not subject to review by the National Climate Archives
Date modified: